TimeCST,TemperatureF,Dew PointF,Humidity,Sea Level PressureIn,VisibilityMPH,Wind Direction,Wind SpeedMPH,Gust SpeedMPH,PrecipitationIn,Events,Conditions,WindDirDegrees,DateUTC
12:52 AM,57.9,53.1,84,29.79,10.0,SSE,11.5,-,N/A,,Clear,160,2013-02-07 06:52:00
1:52 AM,55.9,53.1,90,29.80,10.0,SSE,6.9,-,N/A,,Clear,150,2013-02-07 07:52:00
2:52 AM,57.9,53.1,84,29.80,10.0,South,9.2,-,N/A,,Clear,170,2013-02-07 08:52:00
3:52 AM,59.0,55.0,87,29.78,10.0,South,13.8,19.6,N/A,,Clear,190,2013-02-07 09:52:00
4:52 AM,57.9,55.0,90,29.77,10.0,SSW,16.1,24.2,N/A,,Clear,210,2013-02-07 10:52:00
5:52 AM,57.9,55.0,90,29.79,10.0,SW,18.4,24.2,N/A,,Clear,220,2013-02-07 11:52:00
6:52 AM,57.9,55.0,90,29.80,10.0,SW,12.7,25.3,N/A,,Clear,220,2013-02-07 12:52:00
7:52 AM,57.0,54.0,89,29.83,8.0,SW,10.4,-,N/A,,Clear,220,2013-02-07 13:52:00
9:52 AM,61.0,37.0,41,29.90,10.0,NW,12.7,-,N/A,,Clear,310,2013-02-07 15:52:00
10:52 AM,62.1,36.0,38,29.93,10.0,WNW,19.6,25.3,N/A,,Clear,300,2013-02-07 16:52:00
11:52 AM,63.0,37.0,38,29.94,10.0,WNW,15.0,-,N/A,,Clear,300,2013-02-07 17:52:00
12:52 PM,66.0,39.0,37,29.93,10.0,NW,20.7,27.6,N/A,,Clear,310,2013-02-07 18:52:00
1:52 PM,66.9,39.0,36,29.91,10.0,NNW,20.7,28.8,N/A,,Clear,340,2013-02-07 19:52:00
2:52 PM,68.0,41.0,37,29.91,10.0,NNW,20.7,27.6,N/A,,Clear,330,2013-02-07 20:52:00
3:52 PM,66.9,44.1,44,29.94,10.0,NNW,23.0,28.8,N/A,,Clear,340,2013-02-07 21:52:00
4:52 PM,63.0,45.0,52,29.98,10.0,North,19.6,25.3,N/A,,Clear,360,2013-02-07 22:52:00
5:52 PM,61.0,43.0,52,30.00,10.0,North,13.8,-,N/A,,Clear,10,2013-02-07 23:52:00
6:52 PM,59.0,39.9,49,30.04,10.0,North,16.1,25.3,N/A,,Clear,360,2013-02-08 00:52:00
7:52 PM,55.9,39.9,55,30.08,10.0,North,11.5,-,N/A,,Clear,360,2013-02-08 01:52:00
8:52 PM,54.0,39.9,59,30.12,10.0,North,11.5,-,N/A,,Clear,360,2013-02-08 02:52:00
9:52 PM,50.0,39.0,66,30.14,10.0,North,8.1,-,N/A,,Clear,350,2013-02-08 03:52:00
10:52 PM,48.0,39.0,71,30.17,10.0,North,6.9,-,N/A,,Clear,350,2013-02-08 04:52:00
11:52 PM,48.0,37.9,68,30.17,10.0,North,9.2,-,N/A,,Clear,360,2013-02-08 05:52:00